Location: Juzet
(42.9779°N, 0.7597°E)
Time: 02:41:30
(UTC+00:00)

Cosmos 2242 Rocket - Pass Details

Date: 14 July 2020
Orbit: 619 x 651 km, 82.5° (Epoch: 04 August)

Event Time Altitude Azimuth Distance (km) Brightness Sun altitude
Rises 01:42:14 0° 342° (NNW) 2,974 7.8 -21.5°
Reaches altitude 10° 01:44:39 10° 333° (NNW) 2,055 6.7 -21.3°
Maximum altitude 01:48:45 34° 270° (W) 1,070 4.5 -21.0°
Enters shadow 01:48:53 34° 266° (W) 1,071 4.5 -20.9°
